Weather Roundup
Issued by NWS

Home | Current Version | Previous Version | Text Only | Print | Product List | Glossary On
Versions: 1 2 3 4 5 6 7 8 9 10 11 12 13 14 15 16 17 18 19 20 21 22 23 24 25 26 27 28 29 30 31 32 33 34 35 36 37 38 39 40 41 42 43 44 45 46 47 48 49 50
000
NZUS93 KARX 301359
HRRWXR

CURRENT HOURLY OBSERVATIONS ACROSS
MUCH OF THE UPPER MISSISSIPPI VALLEY
NATIONAL WEATHER SERVICE LA CROSSE WI
800 AM CST FRI JAN 30 2015


...SOUTHEAST MINNESOTA...


CITY           SKY/WX    TMP DP  RH WIND       PRES   REMARKS
ROCHESTER      PTCLDY     6   2  83 S3        30.48F
ROCHESTER/MAYO FAIR      10   3  72 SE5       30.49F WCI   2
WINONA         PTCLDY    12   7  79 CALM      30.54F
AUSTIN         CLEAR     10   7  85 CALM      30.50R
ALBERT LEA     CLEAR     10   9  92 CALM      30.50R
DODGE CENTER   PTCLDY     9   7  92 S3        30.47S
PRESTON        PTCLDY     8   4  84 CALM      30.50S
OWATONNA       CLEAR     12   9  85 CALM      30.49S
FARIBAULT      PTCLDY    10   9  92 CALM      30.51R
$$

...ELSEWHERE IN MINNESOTA...


CITY           SKY/WX    TMP DP  RH WIND       PRES   REMARKS
MINNEAPOLIS    MOCLDY    12   4  70 SE3       30.53R
INTNL FALLS    MOCLDY    -7 -11  83 CALM      30.41F
DULUTH         MOCLDY     0  -5  79 W3        30.42F
RED WING       PTCLDY     9   3  78 CALM      30.53R
REDWOOD FALLS  CLEAR     11   7  84 CALM      30.50S
MANKATO        CLEAR     10   5  79 SW5       30.50F WCI   2
WORTHINGTON    CLOUDY    16  14  93 S6        30.47S WCI   7
FAIRMONT       CLEAR     12   7  79 S5        30.48F WCI   4
$$

...SOUTHWEST WISCONSIN...


CITY           SKY/WX    TMP DP  RH WIND       PRES   REMARKS
LA CROSSE      CLOUDY    13   5  70 N3        30.54S
PRAIRIE DU CHI PTCLDY    15   8  73 NW5       30.54R WCI   7
BOSCOBEL       PTCLDY    15   6  67 NW3       30.55R
LONE ROCK      NOT AVBL
PLATTEVILLE    CLEAR     12   7  81 N5        30.49S WCI   4
FORT MC COY    MOCLDY     9   4  80 CALM      30.52F
VIROQUA        FAIR      10   6  82 NW3       30.48S
WIS DELLS      NOT AVBL
$$

...ELSEWHERE IN WISCONSIN...


CITY           SKY/WX    TMP DP  RH WIND       PRES   REMARKS
MILWAUKEE      PTCLDY    18   7  62 NW6       30.50R WCI  10
MADISON        MOCLDY    15   7  70 NW5       30.50R WCI   8
GREEN BAY      CLOUDY    14   6  70 NW3       30.49S
EAU CLAIRE     MOCLDY     7   0  73 CALM      30.52S
BLACK RVR FLS  PTSUNNY    7   2  82 CALM      30.52F
MEDFORD        PTCLDY     4   1  86 CALM      30.43F
WAUSAU         CLOUDY    10   2  69 NW3       30.45R
WIS RAPIDS     MOCLDY    10   3  73 W3        30.50S
MARSHFIELD     PTCLDY     7   1  76 NW7       30.46S WCI  -5
RICE LAKE      PTCLDY     1  -2  85 CALM      30.52R
$$

...NORTHEAST IOWA...


CITY           SKY/WX    TMP DP  RH WIND       PRES   REMARKS
DECORAH        PTCLDY    10   5  79 N6        30.49F WCI   1
MASON CITY     CLEAR     10   7  87 CALM      30.53R
CHARLES CITY   CLEAR     12   7  79 CALM      30.52S
OELWEIN        CLEAR     12   7  79 N6        30.52S WCI   3
$$

...ELSEWHERE IN IOWA...


CITY           SKY/WX    TMP DP  RH WIND       PRES   REMARKS
DES MOINES     CLEAR     19  12  74 VRB3      30.54F
IOWA CITY      CLEAR     18  11  74 NW7       30.56R WCI   9
FORT DODGE     CLEAR     12  10  92 CALM      30.52F
$$

...NORTHERN ILLINOIS...


CITY           SKY/WX    TMP DP  RH WIND       PRES   REMARKS
CHICAGO-OHARE  PTCLDY    20   8  60 NW10      30.51R WCI   9
CHICAGO-MIDWAY PTCLDY    24  10  55 NW10      30.51R WCI  14
MOLINE         CLEAR     20  11  68 N3        30.54R
ROCKFORD       PTCLDY    19   8  62 N7        30.53S WCI  10
PEORIA         CLEAR     24  15  68 N5        30.53R WCI  18
$$

NOTE: "FAIR" INDICATES FEW OR NO CLOUDS BELOW 12,000 FEET WITH NO
SIGNIFICANT WEATHER AND/OR OBSTRUCTIONS TO VISIBILITY. WIND
SPEEDS ARE IN MILES-PER-HOUR.



USA.gov is the U.S. government's official web portal to all federal, state and local government web resources and services.